Change the Weather History Date:

Monday, June 17, 2013

  Actual Average (KSNY) Record (KSNY)
Temperature  
Mean Temperature 64 °F 68 °F  
Max Temperature 80 °F 83 °F 104 °F (2012)
Min Temperature 48 °F 54 °F 37 °F (1975)
Degree Days  
Heating Degree Days 1 1  
Month to date heating degree days 48  
Since 1 June heating degree days 48  
Since 1 July heating degree days 6210  
Cooling Degree Days 0 5  
Month to date cooling degree days 52  
Year to date cooling degree days 74  
Since 1 June cooling degree days 52  
Growing Degree Days 14 (Base 50)    
Moisture  
Dew Point 50 °F    
Average Humidity 67    
Maximum Humidity 97    
Minimum Humidity 30    
Precipitation  
Precipitation 0.00 in 0.12 in 0.80 in (1967)
Month to date precipitation 1.92  
Year to date precipitation 8.68  
Sea Level Pressure  
Sea Level Pressure 30.15 in    
Wind  
Wind Speed 9 mph (East)    
Max Wind Speed 24 mph    
Max Gust Speed 31 mph    
Visibility 7 miles    
Events Fog , Rain , Thunderstorm    
T = Trace of Precipitation, MM = Missing Value Source: NWS Daily Summary

Daily Weather History Graph

Daily Weather History Graph

Search for Another Location

Airport or City:

Trip Planner

Search our weather history database for the weather conditions in past years. The results will help you decide how hot, cold, wet, or windy it might be!

Date:

Astronomy

Jun. 17, 2013 Rise Set
Actual Time 6:21 AM CDT 9:30 PM CDT
Civil Twilight 5:47 AM CDT 10:03 PM CDT
Nautical Twilight 5:04 AM CDT 10:47 PM CDT
Astronomical Twilight 4:12 AM CDT 11:38 PM CDT
Moon 3:08 PM CDT (6/17) 2:01 AM CDT (6/17)
Length of Visible Light 16h 16m
Length of Day
15h 08m
First Quarter, 60% of the Moon is Illuminated
Jun 17
First Quarter
Jun 23
Full
Jun 29
Last Quarter
Jul 8
New
Jul 15
First Quarter

Hourly Weather History & Observations

Time (CDT) Temp. Dew Point Humidity Pressure Visibility Wind Dir Wind Speed Gust Speed Precip Events Conditions
12:15 AM 55.6 °F 52.0 °F 88% 30.12 in 10.0 mi East 10.4 mph - N/A   Clear
12:35 AM 55.8 °F 52.7 °F 89% 30.13 in 10.0 mi ENE 5.8 mph - N/A   Clear
12:55 AM 55.4 °F 52.5 °F 90% 30.13 in 10.0 mi East 6.9 mph - N/A   Clear
1:15 AM 55.4 °F 52.9 °F 91% 30.13 in 10.0 mi ENE 5.8 mph - N/A   Clear
1:35 AM 54.0 °F 51.8 °F 92% 30.13 in 10.0 mi NE 5.8 mph - N/A   Clear
1:55 AM 53.4 °F 51.8 °F 94% 30.14 in 7.0 mi NNE 4.6 mph - N/A   Clear
2:15 AM 52.3 °F 50.5 °F 94% 30.13 in 7.0 mi East 5.8 mph - N/A   Clear
2:35 AM 52.2 °F 50.5 °F 94% 30.12 in 5.0 mi Calm Calm - N/A   Clear
2:55 AM 52.0 °F 50.7 °F 95% 30.12 in 2.5 mi Calm Calm - N/A   Clear
3:15 AM 50.9 °F 49.5 °F 95% 30.12 in 5.0 mi Calm Calm - N/A   Clear
3:35 AM 51.4 °F 50.0 °F 95% 30.12 in 0.2 mi Calm Calm - N/A Fog Fog
3:55 AM 50.0 °F 48.9 °F 96% 30.11 in 0.2 mi Calm Calm - N/A Fog Fog
4:15 AM 50.2 °F 49.1 °F 96% 30.10 in 0.2 mi SSE 3.5 mph - N/A Fog Fog
4:35 AM 48.9 °F 47.7 °F 95% 30.11 in 0.2 mi Calm Calm - N/A Fog Fog
4:55 AM 48.7 °F 47.7 °F 96% 30.12 in 0.5 mi Calm Calm - N/A Fog Fog
5:15 AM 49.1 °F 48.2 °F 97% 30.12 in 0.2 mi Calm Calm - N/A Fog Fog
5:35 AM 48.6 °F 47.5 °F 96% 30.12 in 0.2 mi Calm Calm - N/A Fog Fog
5:55 AM 49.5 °F 48.4 °F 96% 30.13 in 0.2 mi NW 4.6 mph - N/A Fog Fog
6:15 AM 50.4 °F 49.3 °F 96% 30.13 in 0.2 mi NW 4.6 mph - N/A Fog Fog
6:35 AM 51.1 °F 50.0 °F 96% 30.15 in 0.2 mi NNW 4.6 mph - N/A Fog Fog
6:55 AM 50.9 °F 50.0 °F 97% 30.15 in 0.2 mi North 4.6 mph - N/A Fog Fog
7:15 AM 52.3 °F 51.1 °F 95% 30.17 in 0.2 mi NNE 9.2 mph - N/A Fog Fog
7:35 AM 53.1 °F 52.0 °F 96% 30.19 in 0.2 mi NNE 10.4 mph - N/A Fog Fog
7:55 AM 54.0 °F 52.9 °F 96% 30.19 in 1.0 mi NNE 9.2 mph - N/A   Overcast
8:15 AM 55.2 °F 54.1 °F 96% 30.21 in 1.5 mi NE 8.1 mph - N/A   Overcast
8:35 AM 55.8 °F 54.7 °F 96% 30.20 in 0.8 mi NE 6.9 mph - N/A   Overcast
8:55 AM 56.8 °F 55.8 °F 96% 30.20 in 5.0 mi ENE 11.5 mph - N/A   Overcast
9:15 AM 57.4 °F 55.9 °F 95% 30.20 in 5.0 mi ENE 11.5 mph - N/A   Overcast
9:35 AM 60.1 °F 55.9 °F 86% 30.20 in 10.0 mi ENE 12.7 mph 17.3 mph N/A   Mostly Cloudy
9:55 AM 63.5 °F 55.2 °F 74% 30.21 in 10.0 mi ENE 16.1 mph - N/A   Scattered Clouds
10:15 AM 66.0 °F 54.3 °F 66% 30.19 in 10.0 mi East 15.0 mph 19.6 mph N/A   Scattered Clouds
10:35 AM 67.3 °F 53.4 °F 61% 30.19 in 10.0 mi East 15.0 mph - N/A   Clear
10:55 AM 69.3 °F 52.5 °F 55% 30.19 in 10.0 mi East 13.8 mph 20.7 mph N/A   Clear
11:15 AM 70.0 °F 52.0 °F 53% 30.19 in 10.0 mi ENE 17.3 mph 21.9 mph N/A   Clear
11:35 AM 71.2 °F 51.8 °F 50% 30.21 in 10.0 mi East 17.3 mph - N/A   Clear
11:55 AM 73.0 °F 51.1 °F 46% 30.19 in 10.0 mi East 19.6 mph 23.0 mph N/A   Clear
12:15 PM 74.7 °F 50.4 °F 42% 30.19 in 10.0 mi ENE 18.4 mph 26.5 mph N/A   Clear
12:35 PM 75.2 °F 49.8 °F 41% 30.18 in 10.0 mi East 17.3 mph 27.6 mph N/A   Clear
12:55 PM 77.4 °F 48.2 °F 36% 30.18 in 10.0 mi East 24.2 mph 28.8 mph N/A   Clear
1:15 PM 77.0 °F 46.9 °F 34% 30.17 in 10.0 mi SE 18.4 mph 28.8 mph N/A   Scattered Clouds
1:35 PM 78.1 °F 46.0 °F 32% 30.16 in 10.0 mi SE 13.8 mph 26.5 mph N/A   Scattered Clouds
1:55 PM 79.7 °F 46.4 °F 31% 30.16 in 10.0 mi ESE 21.9 mph 31.1 mph N/A   Clear
2:15 PM 80.6 °F 46.4 °F 30% 30.15 in 10.0 mi SE 16.1 mph 23.0 mph N/A   Clear
2:35 PM 80.4 °F 46.2 °F 30% 30.15 in 10.0 mi SSE 17.3 mph 23.0 mph N/A   Clear
2:55 PM 79.9 °F 46.2 °F 30% 30.15 in 10.0 mi SSE 13.8 mph 25.3 mph N/A   Clear
3:15 PM 80.6 °F 46.4 °F 30% 30.14 in 10.0 mi SSE 15.0 mph 24.2 mph N/A   Clear
3:35 PM 78.3 °F 46.6 °F 33% 30.14 in 10.0 mi SE 16.1 mph 23.0 mph N/A   Scattered Clouds
3:55 PM 79.0 °F 46.2 °F 31% 30.13 in 10.0 mi SSE 12.7 mph 25.3 mph N/A   Mostly Cloudy
4:15 PM 79.2 °F 46.6 °F 32% 30.13 in 10.0 mi SE 13.8 mph 23.0 mph N/A   Scattered Clouds
4:35 PM 77.9 °F 46.4 °F 33% 30.13 in 10.0 mi ESE 11.5 mph 18.4 mph N/A   Mostly Cloudy
4:55 PM 76.8 °F 46.2 °F 34% 30.12 in 10.0 mi SE 13.8 mph - N/A   Mostly Cloudy
5:15 PM 75.0 °F 48.0 °F 38% 30.12 in 10.0 mi South 5.8 mph - N/A Rain , Thunderstorm Light Thunderstorms and Rain
5:35 PM 73.9 °F 49.6 °F 42% 30.11 in 10.0 mi East 11.5 mph - N/A   Overcast
5:55 PM 74.5 °F 51.1 °F 44% 30.10 in 10.0 mi East 15.0 mph - N/A   Scattered Clouds
6:15 PM 76.3 °F 50.4 °F 40% 30.10 in 10.0 mi East 15.0 mph - N/A   Clear
6:35 PM 74.8 °F 52.7 °F 46% 30.10 in 10.0 mi East 19.6 mph - N/A   Clear
6:55 PM 75.2 °F 51.6 °F 44% 30.10 in 10.0 mi ESE 19.6 mph 25.3 mph N/A   Clear
7:15 PM 75.7 °F 48.6 °F 38% 30.10 in 10.0 mi SE 16.1 mph - N/A   Clear
7:35 PM 76.1 °F 48.2 °F 37% 30.08 in 10.0 mi SE 17.3 mph - N/A   Clear
7:55 PM 74.3 °F 49.8 °F 42% 30.10 in 10.0 mi SE 19.6 mph 24.2 mph N/A   Clear
8:15 PM 70.9 °F 52.5 °F 52% 30.11 in 10.0 mi SE 20.7 mph - N/A   Clear
8:35 PM 69.1 °F 53.1 °F 57% 30.12 in 10.0 mi SSE 17.3 mph - N/A   Clear
8:55 PM 66.9 °F 51.8 °F 58% 30.11 in 10.0 mi SE 11.5 mph - N/A   Clear
9:15 PM 65.5 °F 53.2 °F 65% 30.12 in 10.0 mi SSE 10.4 mph - N/A   Clear
9:35 PM 63.9 °F 53.6 °F 69% 30.11 in 10.0 mi SSE 9.2 mph - N/A   Clear
9:55 PM 62.2 °F 53.6 °F 73% 30.12 in 10.0 mi SSE 9.2 mph - N/A   Clear
10:15 PM 61.3 °F 54.0 °F 77% 30.13 in 10.0 mi South 8.1 mph - N/A   Clear
10:35 PM 60.1 °F 53.6 °F 79% 30.16 in 10.0 mi ESE 6.9 mph - N/A   Clear
10:55 PM 59.7 °F 52.5 °F 77% 30.17 in 10.0 mi SE 8.1 mph - N/A   Clear
11:15 PM 59.2 °F 51.3 °F 75% 30.17 in 10.0 mi SSE 8.1 mph - N/A   Clear
11:35 PM 63.3 °F 48.7 °F 59% 30.23 in 10.0 mi North 21.9 mph 31.1 mph N/A   Scattered Clouds
11:55 PM 60.6 °F 44.6 °F 56% 30.25 in 10.0 mi NNE 11.5 mph 21.9 mph N/A   Mostly Cloudy